Time,TemperatureF,DewpointF,PressureIn,WindDirection,WindDirectionDegrees,WindSpeedMPH,WindSpeedGustMPH,Humidity,HourlyPrecipIn,Conditions,Clouds,dailyrainin,SoftwareType,DateUTC
2013-01-13 00:03:00,66.0,-99.9,29.97,SE,139,9.0,11.0,-999,-99.99,,,-99.99,,2013-01-13 06:03:00,
2013-01-13 00:12:00,66.0,-99.9,29.97,SE,136,9.0,12.0,-999,-99.99,,,-99.99,,2013-01-13 06:12:00,
2013-01-13 00:22:00,66.0,-99.9,29.97,SE,134,10.0,14.0,-999,-99.99,,,-99.99,,2013-01-13 06:22:00,
2013-01-13 00:33:00,66.0,-99.9,29.96,SE,128,11.0,14.0,-999,-99.99,,,-99.99,,2013-01-13 06:33:00,
2013-01-13 00:43:00,67.0,-99.9,29.97,SE,132,12.0,15.0,-999,-99.99,,,-99.99,,2013-01-13 06:43:00,
2013-01-13 00:53:00,67.0,-99.9,29.96,SE,132,13.0,16.0,-999,-99.99,,,-99.99,,2013-01-13 06:53:00,
2013-01-13 01:02:00,67.0,-99.9,29.96,SE,133,13.0,16.0,-999,-99.99,,,-99.99,,2013-01-13 07:02:00,
2013-01-13 01:12:00,67.0,-99.9,29.95,SE,132,14.0,18.0,-999,-99.99,,,-99.99,,2013-01-13 07:12:00,
2013-01-13 01:22:00,67.0,-99.9,29.96,SE,136,14.0,16.0,-999,-99.99,,,-99.99,,2013-01-13 07:22:00,
2013-01-13 01:33:00,67.0,-99.9,29.95,SE,134,14.0,19.0,-999,-99.99,,,-99.99,,2013-01-13 07:33:00,
2013-01-13 01:42:00,67.0,-99.9,29.95,SE,133,14.0,17.0,-999,-99.99,,,-99.99,,2013-01-13 07:42:00,
2013-01-13 01:53:00,67.0,-99.9,29.95,SE,134,13.0,16.0,-999,-99.99,,,-99.99,,2013-01-13 07:53:00,
2013-01-13 02:02:00,66.0,-99.9,29.94,SE,134,13.0,17.0,-999,-99.99,,,-99.99,,2013-01-13 08:02:00,
2013-01-13 02:12:00,66.0,-99.9,29.94,SE,133,14.0,19.0,-999,-99.99,,,-99.99,,2013-01-13 08:12:00,
2013-01-13 02:22:00,66.0,-99.9,29.93,SE,132,13.0,17.0,-999,-99.99,,,-99.99,,2013-01-13 08:22:00,
2013-01-13 02:32:00,66.0,-99.9,29.93,SE,133,14.0,18.0,-999,-99.99,,,-99.99,,2013-01-13 08:32:00,
2013-01-13 02:42:00,66.0,-99.9,29.93,SE,135,15.0,19.0,-999,-99.99,,,-99.99,,2013-01-13 08:42:00,
2013-01-13 02:53:00,66.0,-99.9,29.93,SE,137,13.0,17.0,-999,-99.99,,,-99.99,,2013-01-13 08:53:00,
2013-01-13 03:02:00,66.0,-99.9,29.94,SE,137,13.0,16.0,-999,-99.99,,,-99.99,,2013-01-13 09:02:00,
2013-01-13 03:12:00,66.0,-99.9,29.93,SE,135,13.0,16.0,-999,-99.99,,,-99.99,,2013-01-13 09:12:00,
2013-01-13 03:22:00,66.0,-99.9,29.93,SE,138,14.0,17.0,-999,-99.99,,,-99.99,,2013-01-13 09:22:00,
2013-01-13 03:32:00,66.0,-99.9,29.93,SE,138,14.0,18.0,-999,-99.99,,,-99.99,,2013-01-13 09:32:00,
2013-01-13 03:43:00,66.0,-99.9,29.94,SE,139,12.0,15.0,-999,-99.99,,,-99.99,,2013-01-13 09:43:00,
2013-01-13 03:53:00,66.0,-99.9,29.94,SE,143,11.0,14.0,-999,-99.99,,,-99.99,,2013-01-13 09:53:00,
2013-01-13 04:03:00,66.0,-99.9,29.94,SE,142,11.0,14.0,-999,-99.99,,,-99.99,,2013-01-13 10:03:00,
2013-01-13 04:12:00,66.0,-99.9,29.94,SE,140,13.0,15.0,-999,-99.99,,,-99.99,,2013-01-13 10:12:00,
2013-01-13 04:22:00,66.0,-99.9,29.93,SE,142,12.0,15.0,-999,-99.99,,,-99.99,,2013-01-13 10:22:00,
2013-01-13 04:33:00,66.0,-99.9,29.93,SE,144,12.0,15.0,-999,-99.99,,,-99.99,,2013-01-13 10:33:00,
2013-01-13 04:42:00,65.0,-99.9,29.94,SSE,147,11.0,15.0,-999,-99.99,,,-99.99,,2013-01-13 10:42:00,
2013-01-13 04:53:00,65.0,-99.9,29.94,SSE,149,10.0,13.0,-999,-99.99,,,-99.99,,2013-01-13 10:53:00,
2013-01-13 05:02:00,65.0,-99.9,29.94,SSE,149,9.0,12.0,-999,-99.99,,,-99.99,,2013-01-13 11:02:00,
2013-01-13 05:12:00,65.0,-99.9,29.94,SSE,148,10.0,12.0,-999,-99.99,,,-99.99,,2013-01-13 11:12:00,
2013-01-13 05:22:00,65.0,-99.9,29.95,SSE,150,10.0,14.0,-999,-99.99,,,-99.99,,2013-01-13 11:22:00,
2013-01-13 05:33:00,66.0,-99.9,29.95,SE,143,11.0,14.0,-999,-99.99,,,-99.99,,2013-01-13 11:33:00,
2013-01-13 05:43:00,66.0,-99.9,29.94,SE,143,14.0,19.0,-999,-99.99,,,-99.99,,2013-01-13 11:43:00,
2013-01-13 05:53:00,66.0,-99.9,29.94,SE,143,13.0,17.0,-999,-99.99,,,-99.99,,2013-01-13 11:53:00,
2013-01-13 06:03:00,66.0,-99.9,29.95,SE,143,13.0,16.0,-999,-99.99,,,-99.99,,2013-01-13 12:03:00,
2013-01-13 06:12:00,66.0,-99.9,29.95,SE,145,11.0,14.0,-999,-99.99,,,-99.99,,2013-01-13 12:12:00,
2013-01-13 06:22:00,66.0,-99.9,29.95,SE,144,11.0,14.0,-999,-99.99,,,-99.99,,2013-01-13 12:22:00,
2013-01-13 06:33:00,66.0,-99.9,29.95,SE,142,12.0,15.0,-999,-99.99,,,-99.99,,2013-01-13 12:33:00,
2013-01-13 06:42:00,65.0,-99.9,29.95,SE,141,12.0,16.0,-999,-99.99,,,-99.99,,2013-01-13 12:42:00,
2013-01-13 06:53:00,65.0,-99.9,29.95,SE,142,14.0,18.0,-999,-99.99,,,-99.99,,2013-01-13 12:53:00,
2013-01-13 07:03:00,65.0,-99.9,29.95,SE,144,13.0,16.0,-999,-99.99,,,-99.99,,2013-01-13 13:03:00,
2013-01-13 07:12:00,65.0,-99.9,29.96,SSE,148,11.0,15.0,-999,-99.99,,,-99.99,,2013-01-13 13:12:00,
2013-01-13 07:22:00,65.0,-99.9,29.96,SSE,149,12.0,17.0,-999,-99.99,,,-99.99,,2013-01-13 13:22:00,
2013-01-13 07:33:00,65.0,-99.9,29.96,SSE,147,13.0,15.0,-999,-99.99,,,-99.99,,2013-01-13 13:33:00,
2013-01-13 07:43:00,65.0,-99.9,29.96,SSE,150,13.0,16.0,-999,-99.99,,,-99.99,,2013-01-13 13:43:00,
2013-01-13 07:53:00,66.0,-99.9,29.96,SSE,147,15.0,17.0,-999,-99.99,,,-99.99,,2013-01-13 13:53:00,
2013-01-13 08:03:00,65.0,-99.9,29.96,SSE,147,14.0,18.0,-999,-99.99,,,-99.99,,2013-01-13 14:03:00,
2013-01-13 08:13:00,66.0,-99.9,29.95,SE,144,15.0,20.0,-999,-99.99,,,-99.99,,2013-01-13 14:13:00,
2013-01-13 08:23:00,65.0,-99.9,29.95,SE,143,15.0,19.0,-999,-99.99,,,-99.99,,2013-01-13 14:23:00,
2013-01-13 08:33:00,66.0,-99.9,29.95,SE,144,15.0,19.0,-999,-99.99,,,-99.99,,2013-01-13 14:33:00,
2013-01-13 08:43:00,66.0,-99.9,29.96,SSE,148,14.0,19.0,-999,-99.99,,,-99.99,,2013-01-13 14:43:00,
2013-01-13 08:53:00,66.0,-99.9,29.97,SSE,154,15.0,19.0,-999,-99.99,,,-99.99,,2013-01-13 14:53:00,
2013-01-13 09:03:00,65.0,-99.9,29.97,SSE,159,13.0,16.0,-999,-99.99,,,-99.99,,2013-01-13 15:03:00,
2013-01-13 09:13:00,65.0,-99.9,29.97,SSE,157,15.0,18.0,-999,-99.99,,,-99.99,,2013-01-13 15:13:00,
2013-01-13 09:23:00,65.0,-99.9,29.98,SSE,160,13.0,16.0,-999,-99.99,,,-99.99,,2013-01-13 15:23:00,
2013-01-13 09:33:00,65.0,-99.9,29.98,SSE,158,14.0,17.0,-999,-99.99,,,-99.99,,2013-01-13 15:33:00,
2013-01-13 09:43:00,66.0,-99.9,29.97,SSE,154,16.0,20.0,-999,-99.99,,,-99.99,,2013-01-13 15:43:00,
2013-01-13 09:53:00,67.0,-99.9,29.96,SSE,149,17.0,23.0,-999,-99.99,,,-99.99,,2013-01-13 15:53:00,
2013-01-13 10:04:00,67.0,-99.9,29.96,SSE,148,18.0,25.0,-999,-99.99,,,-99.99,,2013-01-13 16:04:00,
2013-01-13 10:13:00,67.0,-99.9,29.97,SSE,154,16.0,23.0,-999,-99.99,,,-99.99,,2013-01-13 16:13:00,
2013-01-13 10:23:00,67.0,-99.9,29.97,SSE,158,13.0,17.0,-999,-99.99,,,-99.99,,2013-01-13 16:23:00,
2013-01-13 10:33:00,66.0,-99.9,29.98,SSE,159,11.0,13.0,-999,-99.99,,,-99.99,,2013-01-13 16:33:00,
2013-01-13 10:43:00,65.0,-99.9,29.99,SSE,165,9.0,11.0,-999,-99.99,,,-99.99,,2013-01-13 16:43:00,
2013-01-13 10:53:00,65.0,-99.9,29.98,SSE,159,10.0,11.0,-999,-99.99,,,-99.99,,2013-01-13 16:53:00,
2013-01-13 11:03:00,66.0,-99.9,29.98,SSE,156,11.0,15.0,-999,-99.99,,,-99.99,,2013-01-13 17:03:00,
2013-01-13 11:13:00,67.0,-99.9,29.98,SSE,155,12.0,14.0,-999,-99.99,,,-99.99,,2013-01-13 17:13:00,
2013-01-13 11:22:00,67.0,-99.9,29.98,SSE,153,12.0,16.0,-999,-99.99,,,-99.99,,2013-01-13 17:22:00,
2013-01-13 11:33:00,67.0,-99.9,29.97,SSE,147,13.0,17.0,-999,-99.99,,,-99.99,,2013-01-13 17:33:00,
2013-01-13 11:43:00,68.0,-99.9,29.97,SSE,147,13.0,17.0,-999,-99.99,,,-99.99,,2013-01-13 17:43:00,
2013-01-13 11:53:00,68.0,-99.9,29.97,SSE,150,12.0,14.0,-999,-99.99,,,-99.99,,2013-01-13 17:53:00,
2013-01-13 12:03:00,68.0,-99.9,29.97,SSE,148,13.0,16.0,-999,-99.99,,,-99.99,,2013-01-13 18:03:00,
2013-01-13 12:12:00,68.0,-99.9,29.97,SSE,150,13.0,16.0,-999,-99.99,,,-99.99,,2013-01-13 18:12:00,
2013-01-13 12:23:00,68.0,-99.9,29.96,SE,144,13.0,16.0,-999,-99.99,,,-99.99,,2013-01-13 18:23:00,
2013-01-13 12:33:00,68.0,-99.9,29.96,SE,144,14.0,20.0,-999,-99.99,,,-99.99,,2013-01-13 18:33:00,
2013-01-13 12:43:00,68.0,-99.9,29.96,SE,145,13.0,15.0,-999,-99.99,,,-99.99,,2013-01-13 18:43:00,
2013-01-13 12:53:00,68.0,-99.9,29.96,SE,146,12.0,16.0,-999,-99.99,,,-99.99,,2013-01-13 18:53:00,
2013-01-13 13:03:00,68.0,-99.9,29.95,SSE,148,11.0,15.0,-999,-99.99,,,-99.99,,2013-01-13 19:03:00,
2013-01-13 13:12:00,68.0,-99.9,29.96,SSE,152,11.0,15.0,-999,-99.99,,,-99.99,,2013-01-13 19:12:00,
2013-01-13 13:23:00,68.0,-99.9,29.96,SSE,148,11.0,14.0,-999,-99.99,,,-99.99,,2013-01-13 19:23:00,
2013-01-13 13:33:00,68.0,-99.9,29.95,SE,146,11.0,15.0,-999,-99.99,,,-99.99,,2013-01-13 19:33:00,
2013-01-13 13:43:00,68.0,-99.9,29.94,SE,142,13.0,17.0,-999,-99.99,,,-99.99,,2013-01-13 19:43:00,
2013-01-13 13:53:00,69.0,-99.9,29.94,SE,144,14.0,18.0,-999,-99.99,,,-99.99,,2013-01-13 19:53:00,
2013-01-13 14:03:00,68.0,-99.9,29.94,SE,140,15.0,19.0,-999,-99.99,,,-99.99,,2013-01-13 20:03:00,
2013-01-13 14:12:00,68.0,-99.9,29.93,SE,143,15.0,19.0,-999,-99.99,,,-99.99,,2013-01-13 20:12:00,
2013-01-13 14:23:00,68.0,-99.9,29.94,SE,142,12.0,17.0,-999,-99.99,,,-99.99,,2013-01-13 20:23:00,
2013-01-13 14:33:00,68.0,-99.9,29.94,SE,144,12.0,15.0,-999,-99.99,,,-99.99,,2013-01-13 20:33:00,
2013-01-13 14:43:00,68.0,-99.9,29.94,SE,144,13.0,18.0,-999,-99.99,,,-99.99,,2013-01-13 20:43:00,
2013-01-13 14:53:00,68.0,-99.9,29.93,SE,143,13.0,17.0,-999,-99.99,,,-99.99,,2013-01-13 20:53:00,
2013-01-13 15:03:00,68.0,-99.9,29.93,SE,142,13.0,16.0,-999,-99.99,,,-99.99,,2013-01-13 21:03:00,
2013-01-13 15:13:00,68.0,-99.9,29.94,SE,145,14.0,18.0,-999,-99.99,,,-99.99,,2013-01-13 21:13:00,
2013-01-13 15:23:00,68.0,-99.9,29.94,SSE,149,15.0,21.0,-999,-99.99,,,-99.99,,2013-01-13 21:23:00,
2013-01-13 15:33:00,68.0,-99.9,29.94,SE,146,14.0,20.0,-999,-99.99,,,-99.99,,2013-01-13 21:33:00,
2013-01-13 15:43:00,68.0,-99.9,29.94,SSE,149,14.0,18.0,-999,-99.99,,,-99.99,,2013-01-13 21:43:00,
2013-01-13 15:53:00,67.0,-99.9,29.95,SSE,155,12.0,15.0,-999,-99.99,,,-99.99,,2013-01-13 21:53:00,
2013-01-13 16:03:00,67.0,-99.9,29.95,SSE,153,11.0,14.0,-999,-99.99,,,-99.99,,2013-01-13 22:03:00,
2013-01-13 16:13:00,68.0,-99.9,29.95,SSE,150,13.0,17.0,-999,-99.99,,,-99.99,,2013-01-13 22:13:00,
2013-01-13 16:23:00,68.0,-99.9,29.96,SSE,150,13.0,19.0,-999,-99.99,,,-99.99,,2013-01-13 22:23:00,
2013-01-13 16:33:00,68.0,-99.9,29.95,SE,145,14.0,17.0,-999,-99.99,,,-99.99,,2013-01-13 22:33:00,
2013-01-13 16:43:00,68.0,-99.9,29.96,SSE,148,14.0,18.0,-999,-99.99,,,-99.99,,2013-01-13 22:43:00,
2013-01-13 16:53:00,68.0,-99.9,29.96,SSE,147,14.0,17.0,-999,-99.99,,,-99.99,,2013-01-13 22:53:00,
2013-01-13 17:03:00,68.0,-99.9,29.96,SE,144,14.0,18.0,-999,-99.99,,,-99.99,,2013-01-13 23:03:00,
2013-01-13 17:12:00,68.0,-99.9,29.95,SE,141,16.0,20.0,-999,-99.99,,,-99.99,,2013-01-13 23:12:00,
2013-01-13 17:23:00,68.0,-99.9,29.96,SSE,149,15.0,19.0,-999,-99.99,,,-99.99,,2013-01-13 23:23:00,
2013-01-13 17:33:00,68.0,-99.9,29.96,SE,146,14.0,20.0,-999,-99.99,,,-99.99,,2013-01-13 23:33:00,
2013-01-13 17:43:00,67.0,-99.9,29.96,SSE,152,13.0,17.0,-999,-99.99,,,-99.99,,2013-01-13 23:43:00,
2013-01-13 17:53:00,67.0,-99.9,29.96,SSE,159,12.0,15.0,-999,-99.99,,,-99.99,,2013-01-13 23:53:00,
2013-01-13 18:03:00,67.0,-99.9,29.96,SSE,160,11.0,14.0,-999,-99.99,,,-99.99,,2013-01-14 00:03:00,
2013-01-13 18:13:00,67.0,-99.9,29.97,SSE,156,13.0,17.0,-999,-99.99,,,-99.99,,2013-01-14 00:13:00,
2013-01-13 18:23:00,67.0,-99.9,29.97,SSE,163,13.0,17.0,-999,-99.99,,,-99.99,,2013-01-14 00:23:00,
2013-01-13 18:33:00,67.0,-99.9,29.97,SSE,163,13.0,17.0,-999,-99.99,,,-99.99,,2013-01-14 00:33:00,
2013-01-13 18:43:00,67.0,-99.9,29.97,SSE,163,13.0,17.0,-999,-99.99,,,-99.99,,2013-01-14 00:43:00,
2013-01-13 18:53:00,67.0,-99.9,29.97,SSE,163,13.0,17.0,-999,-99.99,,,-99.99,,2013-01-14 00:53:00,